Weather History for KSZL - April, 2012

Change the Weather History Date:

Friday, April 13, 2012

  Actual Average Record
Temperature  
Mean Temperature 57 °F -  
Max Temperature 65 °F 63 °F - (-1)
Min Temperature 50 °F 44 °F - (-1)
Degree Days  
Heating Degree Days 8    
Growing Degree Days 7 (Base 50)    
Moisture  
Dew Point 53 °F    
Average Humidity 92    
Maximum Humidity 100    
Minimum Humidity 72    
Precipitation  
Precipitation 0.50 in - - ()
Sea Level Pressure  
Sea Level Pressure 29.92 in    
Wind  
Wind Speed 10 mph (SSE)    
Max Wind Speed 20 mph    
Max Gust Speed 28 mph    
Visibility 9 miles    
Events Rain , Thunderstorm    
Averages and records for this station are not official NWS values.
T = Trace of Precipitation, MM = Missing Value Source: NWS Daily Summary

Daily Weather History Graph

Daily Weather History Graph

Search for Another Location

Airport or City:

Trip Planner

Search our weather history database for the weather conditions in past years. The results will help you decide how hot, cold, wet, or windy it might be!

Date:

Astronomy

Apr. 13, 2012 Rise Set
Actual Time 6:40 AM CDT 7:49 PM CDT
Civil Twilight 6:12 AM CDT 8:17 PM CDT
Nautical Twilight 5:40 AM CDT 8:49 PM CDT
Astronomical Twilight 5:05 AM CDT 9:24 PM CDT
Moon 2:19 AM CDT (4/13) 12:44 PM CDT (4/13)
Length of Visible Light 14h 04m
Length of Day
13h 09m
Waning Gibbous, 47% of the Moon is Illuminated
Apr 13
Waning Gibbous
Apr 21
New
Apr 29
First Quarter
May 5
Full
May 12
Last Quarter

Hourly Weather History & Observations

Time (CDT) Temp. Dew Point Humidity Pressure Visibility Wind Dir Wind Speed Gust Speed Precip Events Conditions
12:55 AM 50.5 °F 46.6 °F 86% 29.99 in 10.0 mi ESE 5.8 mph - N/A   Mostly Cloudy
1:35 AM 51.8 °F 44.6 °F 76% 29.98 in 10.0 mi SE 5.8 mph - N/A   Light Drizzle
1:55 AM 51.8 °F 45.0 °F 77% 29.97 in 10.0 mi SE 8.1 mph - 0.01 in Rain , Thunderstorm Light Rain
2:55 AM 53.1 °F 44.4 °F 72% 29.94 in 10.0 mi SE 5.8 mph - 0.00 in   Overcast
3:02 AM 53.6 °F 44.6 °F 72% 29.93 in 10.0 mi SE 6.9 mph - N/A Thunderstorm Overcast
3:05 AM 53.6 °F 44.6 °F 72% 29.94 in 10.0 mi Variable 5.8 mph - N/A Thunderstorm Thunderstorm
3:06 AM 53.6 °F 44.6 °F 72% 29.94 in 6.0 mi Variable 5.8 mph - N/A Rain , Thunderstorm Light Thunderstorms and Rain
3:24 AM 51.8 °F 46.4 °F 82% 29.94 in 3.0 mi SE 9.2 mph - N/A Rain , Thunderstorm Thunderstorms and Rain
3:40 AM 51.8 °F 46.4 °F 82% 29.93 in 10.0 mi SE 15.0 mph 20.7 mph N/A Rain , Thunderstorm Light Thunderstorms and Rain
3:55 AM 51.6 °F 47.8 °F 87% 29.92 in 10.0 mi SSE 13.8 mph - 0.18 in Rain , Thunderstorm Light Rain Showers
4:55 AM 52.0 °F 48.6 °F 88% 29.91 in 10.0 mi SE 15.0 mph 19.6 mph 0.01 in   Overcast
5:55 AM 52.0 °F 48.4 °F 88% 29.90 in 10.0 mi SSE 12.7 mph - 0.00 in Rain , Thunderstorm Light Rain
6:02 AM 51.8 °F 50.0 °F 94% 29.90 in 4.0 mi SE 9.2 mph - N/A Rain , Thunderstorm Rain
6:13 AM 50.0 °F 50.0 °F 100% 29.89 in 6.0 mi SE 11.5 mph - N/A Rain , Thunderstorm Light Thunderstorms and Rain
6:21 AM 50.0 °F 50.0 °F 100% 29.89 in 10.0 mi SE 12.7 mph 18.4 mph N/A Rain , Thunderstorm Light Thunderstorms and Rain
6:32 AM 50.0 °F 50.0 °F 100% 29.89 in 9.0 mi SE 15.0 mph 21.9 mph N/A Rain , Thunderstorm Light Rain
6:55 AM 50.4 °F 50.4 °F 100% 29.89 in 10.0 mi SE 19.6 mph 27.6 mph 0.13 in   Mostly Cloudy
7:43 AM 51.8 °F 51.8 °F 100% 29.87 in 10.0 mi SSE 17.3 mph 23.0 mph N/A Thunderstorm Thunderstorm
7:55 AM 51.6 °F 51.6 °F 100% 29.89 in 10.0 mi SSE 12.7 mph 21.9 mph 0.00 in Rain , Thunderstorm Light Thunderstorms and Rain
8:09 AM 51.8 °F 51.8 °F 100% 29.90 in 2.0 mi SSE 11.5 mph - N/A Rain , Thunderstorm Heavy Thunderstorms and Rain
8:12 AM 51.8 °F 51.8 °F 100% 29.91 in 4.0 mi SE 10.4 mph - N/A Rain , Thunderstorm Thunderstorms and Rain
8:23 AM 53.6 °F 53.6 °F 100% 29.91 in 5.0 mi SE 12.7 mph 19.6 mph N/A Rain , Thunderstorm Light Thunderstorms and Rain
8:39 AM 53.6 °F 53.6 °F 100% 29.93 in 10.0 mi SSE 10.4 mph - N/A Rain Light Rain
8:48 AM 55.4 °F 55.4 °F 100% 29.93 in 10.0 mi SSE 11.5 mph 17.3 mph N/A   Light Drizzle
8:55 AM 54.7 °F 54.7 °F 100% 29.93 in 10.0 mi South 9.2 mph 17.3 mph 0.13 in   Mostly Cloudy
9:55 AM 53.8 °F 53.8 °F 100% 29.95 in 10.0 mi SSE 11.5 mph - 0.03 in   Overcast
10:55 AM 53.6 °F 53.6 °F 100% 29.96 in 10.0 mi SSE 12.7 mph 19.6 mph N/A   Overcast
11:55 AM 53.6 °F 53.4 °F 99% 29.96 in 10.0 mi SE 10.4 mph 20.7 mph N/A   Overcast
12:55 PM 54.5 °F 53.2 °F 96% 29.94 in 10.0 mi SSE 13.8 mph 20.7 mph N/A   Overcast
1:55 PM 55.9 °F 54.0 °F 93% 29.94 in 10.0 mi SSE 10.4 mph - N/A   Overcast
2:55 PM 58.8 °F 55.6 °F 89% 29.92 in 10.0 mi SSE 11.5 mph - 0.01 in   Mostly Cloudy
3:01 PM 59.0 °F 57.2 °F 94% 29.91 in 10.0 mi SSE 13.8 mph - N/A   Mostly Cloudy
3:55 PM 63.3 °F 59.4 °F 87% 29.89 in 10.0 mi SSE 12.7 mph 19.6 mph N/A   Partly Cloudy
4:55 PM 64.8 °F 60.3 °F 85% 29.88 in 10.0 mi SSE 9.2 mph - N/A   Clear
5:55 PM 64.0 °F 60.4 °F 88% 29.88 in 10.0 mi South 12.7 mph - N/A   Clear
6:55 PM 62.4 °F 59.2 °F 89% 29.88 in 10.0 mi SSE 10.4 mph - N/A   Clear
7:55 PM 60.6 °F 59.7 °F 97% 29.88 in 10.0 mi SSE 10.4 mph - N/A   Scattered Clouds
8:55 PM 59.4 °F 59.4 °F 100% 29.90 in 10.0 mi SSE 11.5 mph - N/A Thunderstorm Mostly Cloudy
9:55 PM 60.4 °F 60.4 °F 100% 29.92 in 10.0 mi South 8.1 mph - N/A Thunderstorm Mostly Cloudy
10:55 PM 63.0 °F 63.0 °F 100% 29.88 in 10.0 mi South 12.7 mph - N/A   Mostly Cloudy
11:00 PM 62.6 °F 62.6 °F 100% 29.88 in 10.0 mi South 11.5 mph - N/A   Scattered Clouds
11:55 PM 61.2 °F 61.2 °F 100% 29.89 in 10.0 mi SSW 8.1 mph - 0.00 in   Partly Cloudy